User: anonymous   Login
Location: Unspecified
(0.0000°N, 0.0000°E)
Time: 12:08:55
(UTC+00:00)
Language:

MetOp-B - Orbit

View from above orbital plane
View from above orbital plane
View from above satellite
View from above satellite

Ground track
Ground track

The orbit data is extracted from the following two-line orbital elements,

1 38771U 12049A   19080.96230324 -.00000001 +00000-0 +19586-4 0  9994
2 38771 098.7146 141.4830 0001153 152.6578 201.0256 14.21483422337592
Epoch (UTC): 21 March 2019 23:05:43
Eccentricity: 0.0001153
inclination: 98.7146°
perigee height: 819 km
apogee height: 821 km
right ascension of ascending node: 141.4830°
argument of perigee: 152.6578°
revolutions per day: 14.21483422
mean anomaly at epoch: 201.0256°
orbit number at epoch: 33759

The dashed part of the orbit path shows where the satellite is in the earth's shadow,  

DLR